Regional Weather Roundup
Issued by NWS Northern Indiana

Home | Current Version | Previous Version | Graphics & Text | Print | Product List | Glossary On
Versions: 1 2 3 4 5 6 7 8 9 10 11 12 13 14 15 16 17 18 19 20 21 22 23 24 25 26 27 28 29 30 31 32 33 34 35 36 37 38 39 40 41 42 43 44 45 46 47 48 49 50
000
ASUS43 KIWX 181210
RWRIWX

KIWX WEATHER ROUNDUP
NATIONAL WEATHER SERVICE NORTHERN INDIANA
800 AM EDT FRI AUG 18 2017

NOTE: "FAIR" INDICATES FEW OR NO CLOUDS BELOW 12,000 FEET WITH NO
SIGNIFICANT WEATHER AND/OR OBSTRUCTIONS TO VISIBILITY.

* THESE STATIONS ARE NOT UNDER NWS QUALITY CONTROL. THEY ALSO MAY NOT
  REPORT WEATHER SUCH AS PRECIPITATION OR FOG.

INZ001>027-181300-
NORTHERN INDIANA

CITY           SKY/WX    TMP DP  RH WIND       PRES   REMARKS
GARY*          PTCLDY    68  64  88 W8        29.84R
VALPARAISO     MOSUNNY   67  65  93 W8        29.84R
6HR MIN TEMP:  66; 6HR MAX TEMP:  69;

MICHIGAN CITY* PTSUNNY   68  61  77 NW7       29.83R
LAPORTE*       MOSUNNY   66  64  91 W6        29.84R
6HR MIN TEMP:  64; 6HR MAX TEMP:  68;

KNOX*          SUNNY     64  63  94 SW5       29.83R
SOUTH BEND     PTSUNNY   65  65 100 W6        29.82R
6HR MIN TEMP:  64; 6HR MAX TEMP:  67;

ELKHART*       MOSUNNY   66  64  94 SW7       29.81R
GOSHEN         SUNNY     67  62  84 SW8       29.82R
6HR MIN TEMP:  65; 6HR MAX TEMP:  71;

MONTICELLO*    SUNNY     65  64  95 SW5       29.86R
6HR MIN TEMP:  64; 6HR MAX TEMP:  70;

LOGANSPORT*    SUNNY     63  63 100 SW7       29.87R
ROCHESTER*     SUNNY     68  64  88 SW5       29.85R
WARSAW*        SUNNY     64  64 100 SW7       29.83R
AUBURN*        SUNNY     66  63  88 SW7       29.83R
FORT WAYNE     MOSUNNY   67  64  90 SW9       29.84R
6HR MIN TEMP:  66; 6HR MAX TEMP:  69;

HUNTINGTON*    SUNNY     66  65  96 W8        29.84R
6HR MIN TEMP:  65; 6HR MAX TEMP:  69;

PERU/GRISSOM   SUNNY     66  66 100 SW9       29.85R
6HR MIN TEMP:  64; 6HR MAX TEMP:  70;

MARION*        SUNNY     64  63  94 W5        29.87R FOG

$$
INZ028>050-181300-
CENTRAL INDIANA

CITY           SKY/WX    TMP DP  RH WIND       PRES   REMARKS
LAFAYETTE      CLEAR     64  64 100 W3        29.87R
6HR MIN TEMP:  63; 6HR MAX TEMP:  68;

KOKOMO*        MOSUNNY   67  64  90 SW9       29.87R
6HR MIN TEMP:  65; 6HR MAX TEMP:  71;

MUNCIE*        SUNNY     69  64  84 W8        29.87R
6HR MIN TEMP:  68; 6HR MAX TEMP:  73;

INDIANAPOLIS   MOSUNNY   67  65  93 W7        29.88R
6HR MIN TEMP:  66; 6HR MAX TEMP:  71;


$$
MIZ043>046-050>051-056>058-064>065-071>073-077>080-181300-
SOUTHWEST LOWER MICHIGAN

CITY           SKY/WX    TMP DP  RH WIND       PRES   REMARKS
BATTLE CREEK   CLOUDY    67  64  90 W13       29.78R
6HR MIN TEMP:  67; 6HR MAX TEMP:  74; 6HR PCP: TRACE;

BENTON HARBOR  CLOUDY    70  61  73 W17G24    29.80R
6HR MIN TEMP:  69; 6HR MAX TEMP:  73; 6HR PCP:  0.01;

COLDWATER*     MOSUNNY   67  67 100 SW8       29.79R
6HR MIN TEMP:  65; 6HR MAX TEMP:  72;

HILLSDALE*     MOSUNNY   68  63  83 W8        29.78S
HOLLAND        CLOUDY    68  61  78 NW10G20   29.77R
6HR MIN TEMP:  67; 6HR MAX TEMP:  71; 6HR PCP: TRACE;

GRAND RAPIDS   LGT RAIN  66  64  93 W16G23    29.75R FOG
6HR MIN TEMP:  65; 6HR MAX TEMP:  70; 6HR PCP: TRACE;

KALAMAZOO      CLOUDY    68  63  84 SW3       29.78R
6HR MIN TEMP:  67; 6HR MAX TEMP:  71; 6HR PCP:  0.02;

STURGIS*       MOSUNNY   66  64  94 SW7       29.80R
6HR MIN TEMP:  63; 6HR MAX TEMP:  71;

THREE RIVERS*  CLOUDY    71  62  75 W10       29.80R
6HR MIN TEMP:  67; 6HR MAX TEMP:  73;


$$
OHZ001>008-015>018-024>025-181300-
NORTHWEST OHIO

CITY           SKY/WX    TMP DP  RH WIND       PRES   REMARKS
WAUSEON*       FAIR      68  66  94 SW8       29.79R
DEFIANCE       SUNNY     68  64  87 SW6       29.80S
6HR MIN TEMP:  66; 6HR MAX TEMP:  71;

FINDLAY        SUNNY     71  65  81 SW9       29.81R
6HR MIN TEMP:  69; 6HR MAX TEMP:  72;

TOLEDO EXPRESS SUNNY     68  67  96 SW9       29.78S
6HR MIN TEMP:  67; 6HR MAX TEMP:  71;

TOLEDO METCALF SUNNY     70  68  93 SW10      29.79S
6HR MIN TEMP:  69; 6HR MAX TEMP:  72;

LIMA           SUNNY     69  67  93 SW9       29.84R
6HR MIN TEMP:  68; 6HR MAX TEMP:  72;


$$
AND FOR LAKE MICHIGAN COASTAL AND OPEN LAKE BUOY OBSERVATIONS

STATION/POSITION TEMP    WIND        PRES    VSBY  WAVE
                 AIR SEA DIR/SP/G                  HT/PER
                 (F)     (DEG/KT/KT) (MB)    (MI)  (FT/S)
CALUMET HARBOR    68     230/  3/  5 1009.6R
MICHIGAN CITY     70     270/ 17/ 19   N/A
BURNS HARBOR      70     280/ 13/ 16 1010.5R
SAINT JOSEPH      71     270/ 14/ 17 1009.5
SOUTH LAKE BUOY   70 71  320/ 19/ 25 1007.8R         4/ 5
4 MI NW BRIDGMAN  70 73  300/ 16/ 19 1009.2          5/ 5
MICHIGAN CITY     71 74  300/ 14/ 17   N/A           4/ 4

$$
&&




USA.gov is the U.S. government's official web portal to all federal, state and local government web resources and services.